Weather History for Big Bear City, CA

Change the Weather History Date:

Tuesday, December 18, 2012

  Actual Average (KBUO) Record (KBUO)
Temperature  
Mean Temperature 26 °F -  
Max Temperature 35 °F 60 °F 71 °F (1999)
Min Temperature 17 °F 41 °F 41 °F (1997)
Degree Days  
Heating Degree Days 39    
Moisture  
Dew Point 25 °F    
Average Humidity 84    
Maximum Humidity 93    
Minimum Humidity 63    
Precipitation  
Precipitation 0.13 in - - ()
Sea Level Pressure  
Sea Level Pressure 29.81 in    
Wind  
Wind Speed 12 mph (WSW)    
Max Wind Speed 24 mph    
Max Gust Speed 36 mph    
Visibility 5 miles    
Events Rain , Snow    
Averages and records for this station are not official NWS values.
T = Trace of Precipitation, MM = Missing Value Source: NWS Daily Summary

Daily Weather History Graph

Daily Weather History Graph

Search for Another Location

Airport:

Trip Planner

Search our weather history database for the weather conditions in past years. The results will help you decide how hot, cold, wet, or windy it might be!

Date:

Astronomy

Dec. 18, 2012 Rise Set
Actual Time 6:48 AM PST 4:40 PM PST
Civil Twilight 6:20 AM PST 5:08 PM PST
Nautical Twilight 5:49 AM PST 5:39 PM PST
Astronomical Twilight 5:18 AM PST 6:10 PM PST
Moon 10:44 AM PST (12/18) 10:55 PM PST (12/18)
Length of Visible Light 10h 47m
Length of Day
9h 52m
Waxing Crescent, 36% of the Moon is Illuminated
Dec 18
Waxing Crescent
Dec 19
First Quarter
Dec 28
Full
Jan 4
Last Quarter
Jan 11
New

Hourly Weather History & Observations

Time (PST) Temp. Windchill Dew Point Humidity Pressure Visibility Wind Dir Wind Speed Gust Speed Precip Events Conditions
12:15 AM 33.8 °F 27.0 °F 30.2 °F 87% 29.98 in 10.0 mi WSW 8.1 mph 19.6 mph N/A   Overcast
12:35 AM 33.8 °F 25.3 °F 30.2 °F 87% 29.97 in 10.0 mi WSW 11.5 mph 17.3 mph N/A   Overcast
12:55 AM 33.8 °F 25.3 °F 30.2 °F 87% 29.96 in 10.0 mi WSW 11.5 mph 18.4 mph N/A   Overcast
1:15 AM 33.8 °F 25.3 °F 30.2 °F 87% 29.96 in 10.0 mi West 11.5 mph 19.6 mph N/A   Overcast
1:35 AM 33.8 °F 26.4 °F 30.2 °F 87% 29.95 in 10.0 mi WSW 9.2 mph 20.7 mph N/A   Mostly Cloudy
1:55 AM 33.8 °F 25.8 °F 28.4 °F 81% 29.96 in 10.0 mi WSW 10.4 mph 24.2 mph N/A   Mostly Cloudy
2:15 AM 33.8 °F 24.8 °F 30.2 °F 87% 29.96 in 10.0 mi WSW 12.7 mph 25.3 mph N/A   Mostly Cloudy
2:35 AM 33.8 °F 23.2 °F 30.2 °F 87% 29.94 in 10.0 mi West 17.3 mph 25.3 mph N/A   Scattered Clouds
3:15 AM 33.8 °F 23.2 °F 30.2 °F 87% 29.90 in 10.0 mi West 17.3 mph 28.8 mph N/A   Mostly Cloudy
3:35 AM 33.8 °F 23.9 °F 30.2 °F 87% 29.89 in 10.0 mi West 15.0 mph 20.7 mph N/A   Scattered Clouds
3:55 AM 33.8 °F 26.4 °F 28.4 °F 81% 29.89 in 10.0 mi WSW 9.2 mph 18.4 mph N/A   Scattered Clouds
4:15 AM 33.8 °F 26.4 °F 30.2 °F 87% 29.89 in 10.0 mi West 9.2 mph 16.1 mph N/A   Mostly Cloudy
4:35 AM 33.8 °F 27.0 °F 30.2 °F 87% 29.88 in 10.0 mi WSW 8.1 mph 17.3 mph N/A   Overcast
4:55 AM 33.8 °F 28.6 °F 30.2 °F 87% 29.88 in 10.0 mi WSW 5.8 mph 16.1 mph N/A   Overcast
5:15 AM 33.8 °F 27.0 °F 30.2 °F 87% 29.87 in 5.0 mi WSW 8.1 mph - N/A   Overcast
5:35 AM 33.8 °F 27.0 °F 32.0 °F 93% 29.86 in 5.0 mi WSW 8.1 mph 17.3 mph N/A   Overcast
5:55 AM 33.8 °F 27.0 °F 32.0 °F 93% 29.86 in 10.0 mi WSW 8.1 mph - N/A   Mostly Cloudy
6:15 AM 33.8 °F 27.0 °F 32.0 °F 93% 29.86 in 7.0 mi WSW 8.1 mph - N/A   Overcast
6:35 AM 33.8 °F 27.7 °F 32.0 °F 93% 29.86 in 5.0 mi WSW 6.9 mph - N/A   Overcast
6:55 AM 33.8 °F 27.7 °F 32.0 °F 93% 29.86 in 2.5 mi West 6.9 mph - N/A   Overcast
7:15 AM 33.8 °F 29.6 °F 32.0 °F 93% 29.85 in 2.0 mi WSW 4.6 mph - N/A   Overcast
7:35 AM 33.8 °F 27.0 °F 32.0 °F 93% 29.84 in 2.0 mi West 8.1 mph - N/A Rain Rain
7:55 AM 33.8 °F 27.0 °F 32.0 °F 93% 29.84 in 2.5 mi WSW 8.1 mph 17.3 mph N/A Rain Light Rain
8:15 AM 33.8 °F 25.8 °F 32.0 °F 93% 29.84 in 1.2 mi West 10.4 mph 17.3 mph N/A   Drizzle
8:35 AM 33.8 °F 25.3 °F 32.0 °F 93% 29.84 in 1.5 mi WSW 11.5 mph 17.3 mph N/A   Drizzle
8:55 AM 33.8 °F 25.8 °F 32.0 °F 93% 29.83 in 1.5 mi WSW 10.4 mph 18.4 mph N/A   Light Drizzle
9:15 AM 33.8 °F 25.8 °F 32.0 °F 93% 29.84 in 1.8 mi WSW 10.4 mph 23.0 mph N/A Rain Light Rain
9:35 AM 33.8 °F 25.8 °F 32.0 °F 93% 29.84 in 2.0 mi WSW 10.4 mph 24.2 mph N/A   Overcast
9:55 AM 33.8 °F 23.9 °F 32.0 °F 93% 29.83 in 4.0 mi West 15.0 mph 21.9 mph N/A Rain Light Rain
10:15 AM 33.8 °F 25.8 °F 32.0 °F 93% 29.83 in 2.5 mi WSW 10.4 mph 18.4 mph N/A Rain Rain
10:35 AM 35.6 °F 27.5 °F 32.0 °F 87% 29.83 in 4.0 mi WSW 11.5 mph 24.2 mph N/A Rain Light Rain
10:55 AM 33.8 °F 25.3 °F 32.0 °F 93% 29.82 in 3.0 mi WSW 11.5 mph 24.2 mph N/A   Overcast
11:15 AM 33.8 °F 25.8 °F 32.0 °F 93% 29.82 in 1.5 mi West 10.4 mph 23.0 mph 0.01 in Rain Light Rain
11:35 AM 33.8 °F 25.8 °F 32.0 °F 93% 29.79 in 2.5 mi WSW 10.4 mph 18.4 mph 0.01 in   Overcast
11:55 AM 33.8 °F 27.0 °F 32.0 °F 93% 29.77 in 1.5 mi WSW 8.1 mph 16.1 mph 0.01 in Rain Light Rain
12:15 PM 33.8 °F 24.8 °F 32.0 °F 93% 29.78 in 1.5 mi WSW 12.7 mph 20.7 mph 0.01 in Rain Light Rain
12:35 PM 33.8 °F 25.3 °F 32.0 °F 93% 29.76 in 1.5 mi WSW 11.5 mph 21.9 mph 0.01 in   Overcast
12:55 PM 32.0 °F 22.1 °F 30.2 °F 93% 29.74 in 1.8 mi WSW 13.8 mph 21.9 mph 0.02 in Snow Light Snow
1:15 PM 32.0 °F 22.1 °F 30.2 °F 93% 29.73 in 0.5 mi SW 13.8 mph 28.8 mph 0.01 in Snow Snow
1:35 PM 32.0 °F 20.5 °F 30.2 °F 93% 29.73 in 1.2 mi WSW 18.4 mph 24.2 mph 0.04 in Snow Light Snow
1:55 PM 32.0 °F 20.5 °F 30.2 °F 93% 29.72 in 1.8 mi WSW 18.4 mph 26.5 mph 0.04 in Snow Light Snow
2:15 PM 32.0 °F 23.0 °F 28.4 °F 87% 29.73 in 2.5 mi WSW 11.5 mph 27.6 mph 0.02 in Snow Light Snow
2:35 PM 32.0 °F 22.5 °F 28.4 °F 87% 29.72 in 10.0 mi WSW 12.7 mph 23.0 mph 0.02 in Snow Light Snow
2:55 PM 32.0 °F 23.0 °F 26.6 °F 80% 29.72 in 5.0 mi WSW 11.5 mph 20.7 mph 0.02 in Snow Light Snow
3:15 PM 32.0 °F 22.5 °F 26.6 °F 80% 29.71 in 3.0 mi WSW 12.7 mph 25.3 mph 0.02 in Snow Light Snow
3:35 PM 30.2 °F 19.8 °F 24.8 °F 80% 29.71 in 10.0 mi SW 13.8 mph 28.8 mph 0.02 in   Overcast
3:55 PM 30.2 °F 19.8 °F 24.8 °F 80% 29.70 in 5.0 mi SW 13.8 mph 21.9 mph 0.02 in Snow Light Snow
4:15 PM 30.2 °F 20.2 °F 24.8 °F 80% 29.70 in 7.0 mi WSW 12.7 mph 26.5 mph N/A Snow Light Snow
4:35 PM 26.6 °F 14.3 °F 21.2 °F 80% 29.70 in 3.0 mi West 16.1 mph 25.3 mph N/A Snow Light Snow
4:55 PM 24.8 °F 11.1 °F 19.4 °F 80% 29.70 in 2.0 mi West 18.4 mph 31.1 mph 0.01 in Snow Light Snow
5:15 PM 23.0 °F 8.0 °F 19.4 °F 86% 29.70 in 1.2 mi West 20.7 mph 26.5 mph 0.01 in Snow Light Snow
5:35 PM 23.0 °F 8.3 °F 17.6 °F 80% 29.70 in 3.0 mi West 19.6 mph 28.8 mph 0.01 in   Haze
5:55 PM 21.2 °F 4.5 °F 17.6 °F 86% 29.71 in 0.8 mi West 24.2 mph 32.2 mph 0.01 in Snow Snow
6:15 PM 21.2 °F 7.8 °F 17.6 °F 86% 29.73 in 0.5 mi WSW 15.0 mph 29.9 mph N/A Snow Heavy Snow
6:35 PM 21.2 °F 9.5 °F 17.6 °F 86% 29.73 in 0.8 mi WSW 11.5 mph 27.6 mph N/A Snow Snow
6:55 PM 21.2 °F 6.0 °F 15.8 °F 80% 29.74 in 5.0 mi West 19.6 mph 28.8 mph N/A   Haze
7:15 PM 21.2 °F 11.7 °F 14.0 °F 74% 29.76 in 10.0 mi WSW 8.1 mph 24.2 mph N/A   Overcast
7:35 PM 21.2 °F 6.8 °F 10.4 °F 63% 29.76 in 7.0 mi West 17.3 mph 23.0 mph N/A   Mostly Cloudy
7:55 PM 19.4 °F 4.5 °F 10.4 °F 68% 29.76 in 5.0 mi West 17.3 mph 26.5 mph N/A   Haze
8:15 PM 19.4 °F 2.8 °F 10.4 °F 68% 29.76 in 2.5 mi West 21.9 mph 34.5 mph N/A Snow Light Snow
8:35 PM 19.4 °F 3.6 °F 10.4 °F 68% 29.76 in 5.0 mi West 19.6 mph 27.6 mph N/A   Haze
8:55 PM 19.4 °F 3.2 °F 10.4 °F 68% 29.76 in 2.0 mi West 20.7 mph 32.2 mph N/A   Haze
9:15 PM 17.6 °F 0.5 °F 10.4 °F 73% 29.77 in 4.0 mi West 21.9 mph 29.9 mph N/A Snow Light Snow
9:35 PM 17.6 °F 0.1 °F 10.4 °F 73% 29.78 in 1.8 mi West 23.0 mph 35.7 mph N/A Snow Light Snow
9:55 PM 17.6 °F 0.1 °F 10.4 °F 73% 29.79 in 1.8 mi West 23.0 mph 35.7 mph N/A Snow Light Snow
10:15 PM 17.6 °F 1.3 °F 10.4 °F 73% 29.81 in 10.0 mi West 19.6 mph 25.3 mph N/A   Clear
10:35 PM 17.6 °F 6.4 °F 8.6 °F 68% 29.83 in 10.0 mi WSW 9.2 mph 19.6 mph N/A   Clear
10:55 PM 17.6 °F 5.7 °F 8.6 °F 68% 29.84 in 10.0 mi WSW 10.4 mph 16.1 mph N/A   Clear
11:15 PM 17.6 °F 10.7 °F 10.4 °F 73% 29.85 in 10.0 mi SW 4.6 mph - N/A   Clear
11:35 PM 17.6 °F 7.3 °F 10.4 °F 73% 29.86 in 10.0 mi SSW 8.1 mph - N/A   Mostly Cloudy
11:55 PM 17.6 °F 8.2 °F 8.6 °F 68% 29.86 in 10.0 mi SW 6.9 mph - N/A   Mostly Cloudy